Regional Weather Roundup
Issued by NWS

Home | Current Version | Previous Version | Graphics & Text | Print | Product List | Glossary On
Versions: 1 2 3 4 5 6 7 8 9 10 11 12 13 14 15 16 17 18 19 20 21 22 23 24 25 26 27 28 29 30 31 32 33 34 35 36 37 38 39 40 41 42 43 44 45 46 47 48 49 50
000
ASUS43 KOAX 131002
RWRNE

WEATHER ROUNDUP FOR NEBRASKA
NATIONAL WEATHER SERVICE OMAHA NE
400 AM CST SAT FEB 13 2016

NOTES: SATELLITE DATA IS BEING USED TO AUGMENT CLOUD COVER ABOVE
       12000 FEET.
       "FAIR" INDICATES FEW OR NO CLOUDS BELOW 12,000 FEET WITH NO
       SIGNIFICANT WEATHER AND/OR OBSTRUCTIONS TO VISIBILITY.

  * THESE STATIONS DO NOT REPORT WEATHER SUCH AS RAIN...SNOW OR FOG.

NEZ001>004-019>022-054>056-131100-
NEBRASKA PANHANDLE

CITY           SKY/WX    TMP DP  RH WIND       PRES   REMARKS
SCOTTSBLUFF    CLOUDY    33  30  88 SE12      30.14F WCI  24
ALLIANCE       CLOUDY    30  29  96 S20       30.15F WCI  17
CHADRON        CLOUDY    34  29  82 S15       30.14F WCI  24
SIDNEY         CLOUDY    30  30 100 S15       30.18F FOG     WCI  19
$$

NEZ057>060-069>072-079>082-131100-
SOUTHWEST NEBRASKA

CITY           SKY/WX    TMP DP  RH WIND       PRES   REMARKS
NORTH PLATTE   CLOUDY    22  19  89 S10       30.33F WCI  11
IMPERIAL       CLOUDY    28  27  96 S18       30.28F WCI  15
MCCOOK         CLOUDY    23  21  92 SE10      30.38F FOG     WCI  12
$$

NEZ005>010-023>029-035>040-094-131100-
NORTH CENTRAL NEBRASKA

CITY           SKY/WX    TMP DP  RH WIND       PRES   REMARKS
VALENTINE      CLOUDY    22  17  81 SE20      30.31F WCI   7
BROKEN BOW     CLOUDY    19  16  88 SE12G22   30.40F WCI   7
ORD            CLOUDY    16  10  77 SE9       30.47R WCI   4
$$

NEZ041-046>049-061>064-073>077-083>087-131100-
SOUTH CENTRAL NEBRASKA

CITY           SKY/WX    TMP DP  RH WIND       PRES   REMARKS
GRAND ISLAND   CLOUDY    16   8  71 SE10      30.51F WCI   4
HASTINGS       CLOUDY    16   9  74 E9        30.49S WCI   4
KEARNEY *      CLOUDY    18  10  73 SE12      30.46F WCI   5
$$

NEZ011>018-030>034-042>045-131100-
NORTHEAST NEBRASKA

CITY           SKY/WX    TMP DP  RH WIND       PRES   REMARKS
NORFOLK        CLOUDY    11   1  64 SE7       30.54F WCI   0
COLUMBUS *     CLOUDY    12  -2  52 E7        30.57S WCI   2
TEKAMAH        CLOUDY     8  -3  61 E3        30.63S
$$

NEZ050>053-065>068-078-088>093-131100-
SOUTHEAST NEBRASKA

CITY           SKY/WX    TMP DP  RH WIND       PRES   REMARKS
LINCOLN        CLOUDY    14   4  64 NE6       30.61S WCI   5
OMAHA EPPLEY   CLOUDY    10  -1  61 CALM      30.65R
FALLS CITY     CLOUDY    15   3  59 NE8       30.61R WCI   4
$$

NEZ044-045-051>053-067-131100-
OMAHA AREA

CITY           SKY/WX    TMP DP  RH WIND       PRES   REMARKS
OMAHA EPPLEY   CLOUDY    10  -1  61 CALM      30.65R
OFFUTT AFB     CLOUDY    10  -1  60 E6        30.62S WCI   1
$$



USA.gov is the U.S. government's official web portal to all federal, state and local government web resources and services.